National Weather Service Hourly Weather Roundup
NOAA NWS Hourly Roundups by Site
NOAA NWS Hourly Roundups by Site
Regional Weather Roundup for Sacramento, CA

To Select Another Site Choose from List

Select Site:  

000
ASUS46 KSTO 292315
RWRCA

NORTHERN AND CENTRAL CA REGIONAL WEATHER ROUNDUP
NATIONAL WEATHER SERVICE SACRAMENTO CA
300 PM PST TUE NOV 29 2022

NOTE: FAIR INDICATES FEW OR NO CLOUDS BELOW 12,000 FEET WITH NO
SIGNIFICANT WEATHER AND/OR OBSTRUCTIONS TO VISIBILITY.

CAZ001-003-300000-
NORTHWEST AREA

CITY           SKY/WX    TMP DP  RH WIND       PRES   REMARKS
CRESCENT CITY  MOSUNNY   48  35  60 S6        30.05F
UKIAH          SUNNY     56  31  38 CALM      29.98F
$$

CAZ006-505>513-300000-
BAY AREA

CITY           SKY/WX    TMP DP  RH WIND       PRES   REMARKS
SANTA ROSA     SUNNY     59  26  28 SW3       29.99F
SAN RAFAEL     N/A       59  MM  MM MISG
NAPA           SUNNY     58  30  34 MISG      30.01F
CONCORD        SUNNY     59  23  25 E8        30.01F
OAKLAND CITY   N/A       56  MM  MM MISG
OAKLAND        MOSUNNY   55  33  43 W8        30.01F
SAN FRAN CITY  N/A       54  MM  45 MISG
SAN FRAN ARPT  MOSUNNY   57  36  45 N5        30.00F
LIVERMORE      SUNNY     57  26  30 E8        29.99F
HAYWARD        SUNNY     55  36  48 W8        30.00F
REDWOOD CITY   N/A       58  MM  40 MISG
MOFFETT ARPT   SUNNY     57  34  41 N8        30.00S
SAN JOSE ARPT  MOSUNNY   60  30  32 N5        29.99F
$$
CAZ034-037-514>518-300000-
CENTRAL COAST

CITY           SKY/WX    TMP DP  RH WIND       PRES   REMARKS
WATSONVILLE    SUNNY     56  40  55 W8        29.98F
SALINAS        SUNNY     61  40  45 NW12      29.97F
MONTEREY       SUNNY     54  41  61 NW7       30.00S
SAN LUIS OBISP SUNNY     62  39  42 S12       29.95R
SANTA MARIA    SUNNY     61  41  47 W8        29.95F
HALF MOON BAY  FAIR      54  39  58 NW14      30.01S
$$
CAZ015-016-300000-
NORTHERN SACRAMENTO VALLEY

CITY           SKY/WX    TMP DP  RH WIND       PRES   REMARKS
REDDING        SUNNY     58  20  22 N6        29.96F
RED BLUFF      SUNNY     58  21  24 N7        29.98
OROVILLE       SUNNY     58  27  30 W3        30.00F
$$
CAZ016>018-300000-
SOUTHERN SACRAMENTO VALLEY

CITY           SKY/WX    TMP DP  RH WIND       PRES   REMARKS
AUBURN         SUNNY     52  32  46 W6        29.99S
BEALE AFB      SUNNY     56  30  36 CALM      29.99S
LINCOLN        FAIR      55  28  35 SW6       30.00S
SAC INTL ARPT  MOSUNNY   60  24  25 SW5       30.00S
MATHER AIRPORT SUNNY     57  28  33 CALM      29.99S
DOWNTOWN SAC   N/A       60  MM  MM MISG
SAC EXEC ARPT  SUNNY     57  24  28 W5        30.01S
VACAVILLE      SUNNY     59  22  24 CALM      30.01F
TRAVIS AFB     SUNNY     64  22  20 CALM      30.00S
$$
CAZ019>021-300000-
SAN JOAQUIN VALLEY

CITY           SKY/WX    TMP DP  RH WIND       PRES   REMARKS
STOCKTON       SUNNY     58  29  33 SW5       30.00F
MODESTO        SUNNY     56  28  34 N5        30.00F
MERCED         SUNNY     57  36  45 VRB5      30.00F
LEMOORE        MOSUNNY   60  36  40 N7        30.00F
FRESNO         PTSUNNY   58  37  45 W3        30.00F
HANFORD        SUNNY     59  35  40 NW5       30.01F
PORTERVILLE    SUNNY     59  37  44 NW7       30.00F
BAKERSFIELD    SUNNY     58  37  45 NW7       29.99S
$$
CAZ011-012-071-300000-
NORTHERN MOUNTAINS

CITY           SKY/WX    TMP DP  RH WIND       PRES   REMARKS
YREKA          MOSUNNY   44  20  38 NW3       29.99S
MOUNT SHASTA   MOSUNNY   43  14  31 CALM      29.94F
ALTURAS        MOSUNNY   34  19  54 W6        29.93F WCI  29
$$
CAZ011-012-071-300000-
SIERRA NEVADA MTNS

CITY           SKY/WX    TMP DP  RH WIND       PRES   REMARKS
BLUE CANYON    SUNNY     43  23  45 S5        29.97S
TRUCKEE        SUNNY     45   5  19 CALM      29.94S
TAHOE VLY ARPT SUNNY     44  17  33 NE5       29.93S
MAMMOTH LAKES  FAIR      39   7  26 SE6       29.97S WCI  35
$$


 

View Past Reports for Sacramento, CA.

Products Courtesy of NOAA-NWS
NWS Information Parsing Script by Ken True at Saratoga Weather - Script by SE Lincoln Weather.

powered by Cumulus v1.9.3 (1059)
Ambient Weather VWS v14.00
Weather-Display (10.37S-(b58))
Virtual VP software
Top Website Map Copyright © 2007 - 2022 Foresthillweather.com Never base important decisions on this or any weather information obtained from the Internet